Weather History for KMRF - November, 2013

Change the Weather History Date:

Saturday, November 2, 2013

  Actual Average Record
Temperature  
Mean Temperature 47 °F -  
Max Temperature 66 °F 67 °F 78 °F (2001)
Min Temperature 28 °F 38 °F 28 °F (2013)
Degree Days  
Heating Degree Days 18    
Moisture  
Dew Point 22 °F    
Average Humidity 41    
Maximum Humidity 69    
Minimum Humidity 17    
Precipitation  
Precipitation 0.00 in - - ()
Sea Level Pressure  
Sea Level Pressure 30.31 in    
Wind  
Wind Speed 7 mph (East)    
Max Wind Speed 16 mph    
Max Gust Speed 20 mph    
Visibility 10 miles    
Events      
Averages and records for this station are not official NWS values.
T = Trace of Precipitation, MM = Missing Value Source: NWS Daily Summary

Daily Weather History Graph

Daily Weather History Graph

Search for Another Location

Airport or City:

Trip Planner

Search our weather history database for the weather conditions in past years. The results will help you decide how hot, cold, wet, or windy it might be!

Date:

Astronomy

Nov. 02, 2013 Rise Set
Actual Time 8:11 AM CDT 7:07 PM CDT
Civil Twilight 7:46 AM CDT 7:32 PM CDT
Nautical Twilight 7:18 AM CDT 8:00 PM CDT
Astronomical Twilight 6:49 AM CDT 8:28 PM CDT
Moon 7:14 AM CDT (11/2) 6:39 PM CDT (11/2)
Length of Visible Light 11h 45m
Length of Day
10h 55m
Waning Crescent, 1% of the Moon is Illuminated
Nov 2
Waning Crescent
Nov 3
New
Nov 9
First Quarter
Nov 17
Full
Nov 25
Last Quarter

Hourly Weather History & Observations

Time (CDT) Temp. Windchill Dew Point Humidity Pressure Visibility Wind Dir Wind Speed Gust Speed Precip Events Conditions
12:15 AM 39.2 °F 33.6 °F 17.6 °F 42% 30.30 in 10.0 mi North 8.1 mph - N/A   Clear
12:35 AM 37.4 °F 34.9 °F 17.6 °F 45% 30.31 in 10.0 mi WNW 3.5 mph - N/A   Clear
12:55 AM 37.4 °F 32.8 °F 17.6 °F 45% 30.31 in 10.0 mi NNW 5.8 mph - N/A   Clear
1:15 AM 35.6 °F - 17.6 °F 48% 30.31 in 10.0 mi Calm Calm - N/A   Clear
1:35 AM 35.6 °F - 17.6 °F 48% 30.31 in 10.0 mi Calm Calm - N/A   Clear
1:55 AM 35.6 °F 30.7 °F 17.6 °F 48% 30.31 in 10.0 mi NNW 5.8 mph - N/A   Clear
2:15 AM 35.6 °F 28.0 °F 17.6 °F 48% 30.31 in 10.0 mi North 10.4 mph - N/A   Clear
2:35 AM 37.4 °F 31.4 °F 19.4 °F 48% 30.32 in 10.0 mi SW 8.1 mph - N/A   Clear
2:55 AM 37.4 °F 30.8 °F 17.6 °F 45% 30.32 in 10.0 mi NNW 9.2 mph - N/A   Clear
3:15 AM 37.4 °F 33.8 °F 19.4 °F 48% 30.32 in 10.0 mi NE 4.6 mph - N/A   Clear
3:35 AM 33.8 °F 28.6 °F 17.6 °F 52% 30.32 in 10.0 mi North 5.8 mph - N/A   Clear
3:55 AM 33.8 °F 28.6 °F 17.6 °F 52% 30.32 in 10.0 mi North 5.8 mph - N/A   Clear
4:15 AM 33.8 °F 26.4 °F 17.6 °F 52% 30.31 in 10.0 mi North 9.2 mph - N/A   Clear
4:35 AM 32.0 °F 27.5 °F 17.6 °F 55% 30.31 in 10.0 mi North 4.6 mph - N/A   Clear
4:55 AM 30.2 °F - 17.6 °F 60% 30.32 in 10.0 mi Calm Calm - N/A   Clear
5:15 AM 30.2 °F - 17.6 °F 60% 30.32 in 10.0 mi Calm Calm - N/A   Clear
5:35 AM 28.4 °F 22.2 °F 19.4 °F 69% 30.32 in 10.0 mi North 5.8 mph - N/A   Clear
5:55 AM 30.2 °F 21.3 °F 19.4 °F 64% 30.32 in 10.0 mi North 10.4 mph - N/A   Clear
6:15 AM 28.4 °F 22.2 °F 19.4 °F 69% 30.33 in 10.0 mi North 5.8 mph - N/A   Clear
6:35 AM 28.4 °F 22.2 °F 19.4 °F 69% 30.33 in 10.0 mi North 5.8 mph - N/A   Clear
6:55 AM 30.2 °F 24.3 °F 19.4 °F 64% 30.34 in 10.0 mi NNW 5.8 mph - N/A   Clear
7:15 AM 28.4 °F 22.2 °F 19.4 °F 69% 30.35 in 10.0 mi NNW 5.8 mph - N/A   Clear
7:35 AM 28.4 °F 20.4 °F 19.4 °F 69% 30.35 in 10.0 mi North 8.1 mph - N/A   Clear
7:55 AM 28.4 °F 21.2 °F 19.4 °F 69% 30.36 in 10.0 mi North 6.9 mph - N/A   Clear
8:15 AM 28.4 °F 22.2 °F 19.4 °F 69% 30.36 in 10.0 mi North 5.8 mph - N/A   Clear
8:35 AM 28.4 °F 23.3 °F 19.4 °F 69% 30.37 in 10.0 mi North 4.6 mph - N/A   Clear
8:55 AM 33.8 °F 30.8 °F 23.0 °F 65% 30.38 in 10.0 mi North 3.5 mph - N/A   Clear
9:15 AM 39.2 °F - 26.6 °F 61% 30.38 in 10.0 mi Calm Calm - N/A   Clear
9:35 AM 46.4 °F 45.2 °F 28.4 °F 50% 30.39 in 10.0 mi WNW 3.5 mph - N/A   Clear
9:55 AM 50.0 °F - 28.4 °F 43% 30.39 in 10.0 mi North 3.5 mph - N/A   Clear
10:15 AM 53.6 °F - 30.2 °F 41% 30.39 in 10.0 mi ENE 4.6 mph - N/A   Clear
10:35 AM 57.2 °F - 30.2 °F 36% 30.39 in 10.0 mi ESE 8.1 mph - N/A   Clear
10:55 AM 59.0 °F - 28.4 °F 31% 30.39 in 10.0 mi SE 9.2 mph - N/A   Clear
11:15 AM 60.8 °F - 28.4 °F 29% 30.39 in 10.0 mi SE 10.4 mph - N/A   Clear
11:35 AM 60.8 °F - 26.6 °F 27% 30.38 in 8.0 mi SSE 10.4 mph - N/A   Clear
11:55 AM 62.6 °F - 26.6 °F 26% 30.38 in 10.0 mi SSE 12.7 mph - N/A   Clear
12:15 PM 62.6 °F - 24.8 °F 24% 30.38 in 10.0 mi SE 10.4 mph - N/A   Clear
12:35 PM 62.6 °F - 24.8 °F 24% 30.37 in 10.0 mi SE 12.7 mph - N/A   Clear
12:55 PM 62.6 °F - 26.6 °F 26% 30.37 in 10.0 mi SSE 12.7 mph 19.6 mph N/A   Clear
1:15 PM 64.4 °F - 26.6 °F 24% 30.36 in 10.0 mi SSE 6.9 mph 17.3 mph N/A   Clear
1:35 PM 64.4 °F - 24.8 °F 22% 30.35 in 10.0 mi SE 8.1 mph 19.6 mph N/A   Clear
1:55 PM 64.4 °F - 23.0 °F 21% 30.34 in 10.0 mi SSE 10.4 mph 19.6 mph N/A   Clear
2:15 PM 64.4 °F - 23.0 °F 21% 30.32 in 10.0 mi SSE 12.7 mph 19.6 mph N/A   Clear
2:35 PM 66.2 °F - 23.0 °F 19% 30.31 in 10.0 mi SSE 11.5 mph 19.6 mph N/A   Clear
2:55 PM 66.2 °F - 21.2 °F 18% 30.29 in 10.0 mi ESE 12.7 mph 18.4 mph N/A   Clear
3:15 PM 66.2 °F - 21.2 °F 18% 30.29 in 10.0 mi ESE 9.2 mph - N/A   Clear
3:35 PM 66.2 °F - 21.2 °F 18% 30.28 in 10.0 mi ESE 11.5 mph - N/A   Clear
3:55 PM 66.2 °F - 21.2 °F 18% 30.27 in 10.0 mi SE 16.1 mph 19.6 mph N/A   Clear
4:15 PM 66.2 °F - 21.2 °F 18% 30.26 in 10.0 mi SE 10.4 mph - N/A   Clear
4:35 PM 66.2 °F - 21.2 °F 18% 30.25 in 10.0 mi SE 11.5 mph 17.3 mph N/A   Clear
4:55 PM 66.2 °F - 19.4 °F 17% 30.25 in 10.0 mi SE 9.2 mph - N/A   Clear
5:15 PM 66.2 °F - 19.4 °F 17% 30.24 in 10.0 mi SE 10.4 mph 16.1 mph N/A   Clear
5:35 PM 66.2 °F - 19.4 °F 17% 30.24 in 10.0 mi SE 9.2 mph - N/A   Clear
5:55 PM 64.4 °F - 21.2 °F 19% 30.24 in 10.0 mi SE 13.8 mph - N/A   Clear
6:15 PM 64.4 °F - 19.4 °F 18% 30.24 in 10.0 mi SE 12.7 mph - N/A   Clear
6:35 PM 62.6 °F - 21.2 °F 20% 30.24 in 10.0 mi SSE 11.5 mph - N/A   Clear
6:55 PM 60.8 °F - 21.2 °F 22% 30.24 in 10.0 mi SSE 11.5 mph - N/A   Clear
7:15 PM 57.2 °F - 23.0 °F 27% 30.24 in 10.0 mi SE 8.1 mph - N/A   Clear
7:35 PM 55.4 °F - 24.8 °F 31% 30.24 in 10.0 mi SE 8.1 mph - N/A   Clear
7:55 PM 51.8 °F - 23.0 °F 33% 30.24 in 10.0 mi ESE 8.1 mph - N/A   Clear
8:15 PM 46.4 °F 42.9 °F 23.0 °F 40% 30.25 in 10.0 mi East 6.9 mph - N/A   Clear
8:35 PM 46.4 °F 42.4 °F 24.8 °F 43% 30.25 in 10.0 mi East 8.1 mph - N/A   Clear
8:55 PM 46.4 °F 42.4 °F 24.8 °F 43% 30.25 in 10.0 mi East 8.1 mph - N/A   Clear
9:15 PM 46.4 °F 42.4 °F 24.8 °F 43% 30.25 in 10.0 mi East 8.1 mph - N/A   Clear
9:35 PM 46.4 °F 42.4 °F 26.6 °F 46% 30.25 in 10.0 mi East 8.1 mph - N/A   Clear
9:55 PM 44.6 °F 41.4 °F 24.8 °F 46% 30.25 in 10.0 mi ENE 5.8 mph - N/A   Clear
10:15 PM 44.6 °F 41.4 °F 26.6 °F 49% 30.25 in 10.0 mi East 5.8 mph - N/A   Clear
10:35 PM 41.0 °F - 23.0 °F 49% 30.25 in 10.0 mi Calm Calm - N/A   Clear
10:55 PM 46.4 °F 45.2 °F 28.4 °F 50% 30.24 in 10.0 mi ENE 3.5 mph - N/A   Clear
11:15 PM 42.8 °F - 26.6 °F 53% 30.23 in 10.0 mi Calm Calm - N/A   Clear
11:35 PM 42.8 °F - 26.6 °F 53% 30.23 in 10.0 mi Calm Calm - N/A   Clear
11:55 PM 39.2 °F - 24.8 °F 56% 30.23 in 10.0 mi Calm Calm - N/A   Clear